Location: Unspecified
(41.5000°N, 0.0000°E)
Time: 19:24:02
(UTC+00:00)

Vanguard 2 - Pass Details

Date: 20 June 2019
Orbit: 553 x 2938 km, 32.9° (Epoch: 15 July)

Event Time Altitude Azimuth Distance (km) Brightness Sun altitude
Rises 09:22:48 0° 241° (WSW) 3,393 10.6 52.4°
Reaches altitude 10° 09:25:00 10° 233° (SW) 2,670 10.2 52.8°
Maximum altitude 09:31:07 43° 163° (SSE) 1,752 10.4 53.9°
Drops below altitude 10° 09:41:00 10° 98° (E) 4,297 12.1 55.6°
Sets 09:45:32 0° 93° (E) 5,695 12.4 56.4°
